EW1587 Weather Reports


time (UTC)temp
F
wind
direction
speed
knots
gust
knots
rain 1hr
in
rain 24hr
in
rain mn
in
humidity
%
barometer
mb
20260901024035 70 281 1.7 3.5 0.00 0.00 0.00 81 1011.3
20260901023535 70 285 0.9 2.6 0.00 0.00 0.00 84 1011.3
20260901023041 70 263 0.0 0.9 0.00 0.00 0.00 82 1011.3
20260901022534 70 305 0.0 2.6 0.00 0.00 0.00 82 1011.5
20260901022033 70 267 0.0 2.6 0.00 0.00 0.00 82 1011.4
20260901021535 70 280 0.9 2.6 0.00 0.00 0.00 83 1011.4
20260901021035 70 297 0.0 0.9 0.00 0.00 0.00 81 1011.3
20260901020533 71 297 0.0 0.9 0.00 0.00 0.00 81 1011.2
20260901020031 71 298 0.0 0.0 0.00 0.00 0.00 80 1011.2
20260901015533 71 298 0.0 0.0 0.00 0.00 0.00 78 1011.2
20260901015031 72 298 0.0 0.0 0.00 0.00 0.00 77 1011.2
20260901014530 72 298 0.0 0.0 0.00 0.00 0.00 77 1011.2
20260901014030 72 298 0.0 0.0 0.00 0.00 0.00 75 1011.1
20260901013530 72 298 0.0 0.9 0.00 0.00 0.00 74 1011.0
20260901013030 72 299 0.0 0.9 0.00 0.00 0.00 73 1011.0
20260901012528 72 283 0.0 0.9 0.00 0.00 0.00 73 1010.9
20260901012027 73 269 0.0 0.9 0.00 0.00 0.00 73 1010.9
20260901011527 73 283 0.0 0.0 0.00 0.00 0.00 73 1010.9
20260901011027 73 282 0.0 0.0 0.00 0.00 0.00 72 1010.8
20260901010527 74 282 0.0 0.0 0.00 0.00 0.00 71 1010.8
20260901010026 75 282 0.0 0.0 0.00 0.00 0.00 70 1010.8
20260901005526 76 282 0.0 0.0 0.00 0.00 0.00 69 1010.7
20260901005026 77 283 0.0 0.0 0.00 0.00 0.00 68 1010.7
20260901004525 78 303 0.0 0.0 0.00 0.00 0.00 67 1010.6
20260901004025 78 304 0.0 1.7 0.00 0.00 0.00 66 1010.6
20260901003528 79 303 0.0 4.3 0.00 0.00 0.00 64 1010.6
20260901003026 79 315 1.7 5.2 0.00 0.00 0.00 62 1010.6
20260901002525 80 294 2.6 5.2 0.00 0.00 0.00 60 1010.6
20260901002024 80 290 2.6 4.3 0.00 0.00 0.00 59 1010.7
20260901001524 81 307 0.9 3.5 0.00 0.00 0.00 60 1010.7
20260901001023 81 285 1.7 3.5 0.00 0.00 0.00 58 1010.6
20260901000524 81 295 1.7 4.3 0.00 0.00 0.00 58 1010.6
20260901000023 82 296 0.9 4.3 0.00 0.00 0.00 57 1010.6
20260831235527 82 288 2.6 4.3 0.00 0.00 0.00 55 1010.6
20260831235023 82 293 2.6 4.3 0.00 0.00 0.00 55 1010.6
20260831234524 82 287 2.6 4.3 0.00 0.00 0.00 55 1010.6
20260831234023 82 297 2.6 6.1 0.00 0.00 0.00 55 1010.6
20260831233526 82 295 4.3 6.1 0.00 0.00 0.00 53 1010.6
20260831233023 82 301 4.3 7.0 0.00 0.00 0.00 52 1010.6
20260831232523 83 282 3.5 7.0 0.00 0.00 0.00 52 1010.6
20260831232025 83 297 3.5 6.1 0.00 0.00 0.00 53 1010.6
20260831231529 84 263 0.9 6.1 0.00 0.00 0.00 53 1010.6
20260831231022 84 288 2.6 6.1 0.00 0.00 0.00 53 1010.6
20260831230521 84 276 2.6 6.1 0.00 0.00 0.00 53 1010.6
20260831230026 84 278 1.7 4.3 0.00 0.00 0.00 53 1010.6
20260831225521 84 239 0.0 6.1 0.00 0.00 0.00 53 1010.5
20260831225020 84 290 1.7 6.1 0.00 0.00 0.00 52 1010.5
20260831224519 85 269 2.6 6.1 0.00 0.00 0.00 52 1010.4
20260831224019 85 256 0.9 6.1 0.00 0.00 0.00 51 1010.4
20260831223520 85 275 0.9 6.1 0.00 0.00 0.00 50 1010.4
20260831223020 85 297 3.5 6.1 0.00 0.00 0.00 46 1010.4
20260831222520 86 295 1.7 7.0 0.00 0.00 0.00 48 1010.2
20260831222018 86 261 3.5 7.0 0.00 0.00 0.00 46 1010.3
20260831221518 86 298 1.7 6.1 0.00 0.00 0.00 48 1010.3
20260831221018 87 290 3.5 6.1 0.00 0.00 0.00 44 1010.3
20260831220522 88 286 1.7 4.3 0.00 0.00 0.00 45 1010.2
20260831220017 88 252 0.9 5.2 0.00 0.00 0.00 45 1010.3
20260831215517 87 276 0.0 5.2 0.00 0.00 0.00 47 1010.3
20260831215017 87 281 1.7 5.2 0.00 0.00 0.00 46 1010.3
20260831214515 87 294 0.9 7.0 0.00 0.00 0.00 46 1010.3
20260831214017 87 287 3.5 7.0 0.00 0.00 0.00 45 1010.4
20260831213516 87 290 0.9 6.1 0.00 0.00 0.00 47 1010.2
20260831213014 87 290 1.7 6.1 0.00 0.00 0.00 46 1010.1
20260831212515 88 298 2.6 6.1 0.00 0.00 0.00 46 1010.2
20260831212013 88 274 0.0 6.1 0.00 0.00 0.00 47 1010.2
20260831211524 89 313 0.9 3.5 0.00 0.00 0.00 45 1010.2
20260831211011 89 77 0.0 2.6 0.00 0.00 0.00 39 1010.3
20260831210510 88 271 0.9 4.3 0.00 0.00 0.00 40 1010.3
20260831210010 88 242 0.0 4.3 0.00 0.00 0.00 39 1010.2
20260831205510 88 298 0.9 4.3 0.00 0.00 0.00 40 1010.2
20260831205009 88 290 0.9 5.2 0.00 0.00 0.00 38 1010.2
20260831204511 88 297 1.7 5.2 0.00 0.00 0.00 38 1010.2
20260831204006 89 349 0.0 3.5 0.00 0.00 0.00 40 1010.3
20260831203507 89 307 1.7 3.5 0.00 0.00 0.00 40 1010.3
20260831203015 88 18 0.0 7.0 0.00 0.00 0.00 44 1010.3
20260831202504 87 320 0.9 7.0 0.00 0.00 0.00 42 1010.3
20260831202003 87 346 0.0 4.3 0.00 0.00 0.00 43 1010.3
20260831201504 87 47 0.9 4.3 0.00 0.00 0.00 44 1010.3
20260831201003 86 1 0.0 4.3 0.00 0.00 0.00 45 1010.4
20260831200502 86 315 2.6 4.3 0.00 0.00 0.00 45 1010.4
20260831200002 87 60 0.0 4.3 0.00 0.00 0.00 43 1010.3
20260831195504 87 69 0.9 4.3 0.00 0.00 0.00 42 1010.2
20260831195001 87 313 0.0 4.3 0.00 0.00 0.00 44 1010.1
20260831194623 87 65 1.7 4.3 0.00 0.00 0.00 41 1010.0
20260831194059 87 304 0.9 4.3 0.00 0.00 0.00 41 1010.1
20260831193600 86 16 0.0 4.3 0.00 0.00 0.00 43 1010.1
20260831193057 86 31 0.0 2.6 0.00 0.00 0.00 42 1010.1
20260831192559 85 6 0.0 6.1 0.00 0.00 0.00 44 1010.0
20260831192055 85 79 2.6 6.1 0.00 0.00 0.00 44 1009.9
20260831191555 85 54 0.0 7.0 0.00 0.00 0.00 45 1010.0
20260831191056 85 62 4.3 7.8 0.00 0.00 0.00 45 1010.0
20260831190554 85 285 1.7 7.0 0.00 0.00 0.00 45 1010.1
20260831190058 85 89 0.9 4.3 0.00 0.00 0.00 44 1010.1
20260831185553 85 14 0.9 4.3 0.00 0.00 0.00 47 1010.1
20260831185052 85 51 0.9 4.3 0.00 0.00 0.00 51 1010.2
20260831184552 85 320 0.9 4.3 0.00 0.00 0.00 54 1010.2
20260831184051 84 324 0.9 4.3 0.00 0.00 0.00 56 1010.0
20260831183550 84 25 0.9 4.3 0.00 0.00 0.00 53 1009.9
20260831183050 85 29 0.0 4.3 0.00 0.00 0.00 57 1010.0
20260831182553 86 71 0.0 5.2 0.00 0.00 0.00 53 1009.9
20260831182053 85 58 0.0 3.5 0.00 0.00 0.00 58 1009.9
20260831181548 84 341 0.0 4.3 0.00 0.00 0.00 55 1009.9
20260831181048 84 346 0.9 5.2 0.00 0.00 0.00 57 1010.0
20260831180548 83 336 0.9 5.2 0.00 0.00 0.00 60 1010.0
20260831180048 84 77 1.7 7.8 0.00 0.00 0.00 57 1010.0
20260831175548 85 67 2.6 7.8 0.00 0.00 0.00 56 1010.0
20260831175052 86 72 0.0 3.5 0.00 0.00 0.00 54 1010.0
20260831174547 86 328 0.0 3.5 0.00 0.00 0.00 55 1010.1
20260831174049 86 311 0.0 3.5 0.00 0.00 0.00 55 1010.1
20260831173548 85 311 0.0 4.3 0.00 0.00 0.00 57 1010.0
20260831173045 85 123 0.9 4.3 0.00 0.00 0.00 56 1010.1
20260831172543 84 30 0.0 4.3 0.00 0.00 0.00 62 1010.2
20260831172041 84 349 0.0 5.2 0.00 0.00 0.00 62 1010.3
20260831171540 83 57 0.0 6.1 0.00 0.00 0.00 63 1010.3
20260831171039 83 276 0.0 3.5 0.00 0.00 0.00 69 1010.3
20260831170538 83 63 0.0 3.5 0.00 0.00 0.00 69 1010.4
20260831170036 82 323 0.0 3.5 0.00 0.00 0.00 71 1010.3
20260831165535 81 321 0.0 4.3 0.00 0.00 0.00 74 1010.2
20260831165033 81 18 0.9 4.3 0.00 0.00 0.00 74 1010.3
20260831164531 80 94 0.0 2.6 0.00 0.00 0.00 76 1010.3
20260831164031 79 345 0.9 2.6 0.00 0.00 0.00 75 1010.3
20260831163530 79 46 0.0 4.3 0.00 0.00 0.00 77 1010.3
20260831163032 79 289 0.9 4.3 0.00 0.00 0.00 77 1010.3
20260831162529 79 321 0.0 1.7 0.00 0.00 0.00 80 1010.3
20260831162028 79 286 0.0 3.5 0.00 0.00 0.00 79 1010.3
20260831161532 79 328 0.0 3.5 0.00 0.00 0.00 79 1010.2
20260831161026 79 298 0.9 6.1 0.00 0.00 0.00 78 1010.2
20260831160526 79 326 0.0 6.1 0.00 0.00 0.00 78 1010.1
20260831160025 79 25 0.9 4.3 0.00 0.00 0.00 80 1010.1
20260831155524 78 277 0.0 2.6 0.00 0.00 0.00 81 1010.0
20260831155023 78 319 0.0 4.3 0.00 0.00 0.00 82 1010.0
20260831154522 78 354 0.0 4.3 0.00 0.00 0.00 83 1009.9
20260831154025 77 77 0.9 4.3 0.00 0.00 0.00 84 1009.9
20260831153520 77 322 0.0 2.6 0.00 0.00 0.00 85 1009.8
20260831153018 77 74 0.0 3.5 0.00 0.00 0.00 86 1009.8
20260831152518 77 300 0.0 3.5 0.00 0.00 0.00 86 1009.8
20260831152017 77 92 0.0 2.6 0.00 0.00 0.00 87 1009.7
20260831151517 76 1 0.0 2.6 0.00 0.00 0.00 88 1009.8
20260831151014 76 357 0.0 2.6 0.00 0.00 0.00 89 1009.7
20260831150513 76 62 0.0 2.6 0.00 0.00 0.00 88 1009.5
20260831150014 76 117 0.0 4.3 0.00 0.00 0.00 89 1009.4
20260831145510 76 335 0.0 5.2 0.00 0.00 0.00 88 1009.4
20260831145009 75 323 0.9 5.2 0.00 0.00 0.00 89 1009.3
20260831144509 75 44 0.0 4.3 0.00 0.00 0.00 90 1009.2
20260831144009 75 332 0.9 4.3 0.00 0.00 0.00 90 1009.2
20260831143509 75 343 0.0 6.1 0.00 0.00 0.00 92 1009.0
20260831143008 75 282 0.0 6.1 0.00 0.00 0.00 91 1009.0
20260831142507 75 278 0.0 4.3 0.00 0.00 0.00 92 1008.8
20260831142006 75 295 0.0 3.5 0.00 0.00 0.00 93 1008.8
20260831141504 75 307 0.0 5.2 0.00 0.00 0.00 94 1008.8
20260831141004 75 53 0.0 5.2 0.00 0.00 0.00 95 1008.8
20260831140505 74 278 0.0 4.3 0.00 0.00 0.00 96 1008.7
20260831140002 74 13 0.0 5.2 0.00 0.00 0.00 98 1008.7
20260831135600 74 259 0.0 5.2 0.00 0.00 0.00 98 1008.7
20260831135100 73 346 0.0 2.6 0.00 0.00 0.00 100 1008.6
20260831134559 73 301 0.0 4.3 0.00 0.00 0.00 100 1008.6
20260831134057 72 289 0.9 4.3 0.00 0.00 0.00 100 1008.5
20260831133556 72 323 0.9 2.6 0.00 0.00 0.00 100 1008.5
20260831133055 72 278 0.0 0.9 0.00 0.00 0.00 100 1008.4
20260831132554 71 311 0.0 0.9 0.00 0.00 0.00 100 1008.3
20260831132053 71 312 0.0 0.0 0.00 0.00 0.00 100 1008.1
20260831131556 70 292 0.0 0.9 0.00 0.00 0.00 100 1008.1
20260831131052 70 293 0.0 0.9 0.00 0.00 0.00 100 1008.1
20260831130552 70 290 0.0 0.9 0.00 0.00 0.00 100 1008.1
20260831130105 69 303 0.0 0.9 0.00 0.00 0.00 100 1008.0
20260831125552 69 298 0.0 0.9 0.00 0.00 0.00 100 1008.1
20260831125052 69 284 0.0 0.9 0.00 0.00 0.00 100 1008.1
20260831124551 68 240 0.0 0.9 0.00 0.00 0.00 100 1007.9
20260831124049 68 250 0.0 0.9 0.00 0.00 0.00 100 1007.9
20260831123549 68 284 0.0 1.7 0.00 0.00 0.00 100 1007.7
20260831123048 68 289 0.0 1.7 0.00 0.00 0.00 100 1007.6
20260831122547 67 294 0.0 1.7 0.00 0.00 0.00 100 1007.5
20260831122048 67 297 0.0 0.9 0.00 0.00 0.00 100 1007.5
20260831121545 67 243 0.0 0.9 0.00 0.00 0.00 100 1007.3
20260831121045 67 243 0.0 0.9 0.00 0.00 0.00 100 1007.3
20260831120544 67 248 0.0 0.0 0.00 0.00 0.00 100 1007.1
20260831120043 67 288 0.0 0.9 0.00 0.00 0.00 100 1006.9
20260831115542 68 288 0.0 0.9 0.00 0.00 0.00 100 1006.8
20260831115041 67 295 0.0 0.0 0.00 0.00 0.00 100 1006.7
20260831114541 68 295 0.0 0.0 0.00 0.00 0.00 100 1006.6
20260831114040 67 245 0.0 0.0 0.00 0.00 0.00 100 1006.4
20260831113540 68 245 0.0 0.0 0.00 0.00 0.00 100 1006.3
20260831113040 68 244 0.0 0.0 0.00 0.00 0.00 100 1006.4
20260831112539 68 245 0.0 0.9 0.00 0.00 0.00 100 1006.4
20260831112039 68 243 0.0 0.9 0.00 0.00 0.00 100 1006.4
20260831111537 68 293 0.0 0.0 0.00 0.00 0.00 100 1006.4
20260831111037 68 293 0.0 0.9 0.00 0.00 0.00 100 1006.4
20260831110537 68 276 0.0 0.9 0.00 0.00 0.00 100 1006.5
20260831110040 68 280 0.0 1.7 0.00 0.00 0.00 100 1006.5
20260831105539 68 290 0.0 0.9 0.00 0.00 0.00 100 1006.6
20260831105047 68 274 0.0 1.7 0.00 0.00 0.00 100 1006.5
20260831104539 68 260 0.0 1.7 0.00 0.00 0.00 100 1006.4
20260831104035 68 280 0.0 1.7 0.00 0.00 0.00 100 1006.4
20260831103534 68 278 0.0 1.7 0.00 0.00 0.00 100 1006.4
20260831103035 68 273 0.0 0.9 0.00 0.00 0.00 100 1006.4
20260831102533 68 243 0.0 1.7 0.00 0.00 0.00 100 1006.4
20260831102033 69 301 0.0 1.7 0.00 0.00 0.00 100 1006.4
20260831101538 69 246 0.0 1.7 0.00 0.00 0.00 100 1006.2
20260831101034 69 290 0.0 2.6 0.00 0.00 0.00 100 1006.3
20260831100531 69 277 0.0 2.6 0.00 0.00 0.00 100 1006.3
20260831100031 69 278 0.0 2.6 0.00 0.00 0.00 100 1006.1
20260831095631 69 280 0.0 2.6 0.00 0.00 0.00 100 1006.1
20260831095029 69 269 0.0 1.7 0.00 0.00 0.00 100 1006.1
20260831094528 69 264 0.0 2.6 0.00 0.00 0.00 100 1006.0
20260831094029 69 269 0.0 2.6 0.00 0.00 0.00 100 1005.9
20260831093529 69 252 0.0 2.6 0.00 0.00 0.00 100 1005.8
20260831093028 69 250 0.0 2.6 0.00 0.00 0.00 100 1005.9
20260831092528 69 284 0.0 1.7 0.00 0.00 0.00 100 1005.9
20260831092026 69 249 0.0 1.7 0.00 0.00 0.00 100 1005.8
20260831091526 69 243 0.0 1.7 0.00 0.00 0.00 100 1005.8
20260831091025 69 284 0.0 2.6 0.00 0.00 0.00 100 1005.9
20260831090526 70 260 0.0 2.6 0.00 0.00 0.00 100 1005.9
20260831090031 70 306 0.0 2.6 0.00 0.00 0.00 99 1005.8
20260831085525 70 264 0.0 2.6 0.00 0.00 0.00 99 1005.9
20260831085023 70 273 0.0 1.7 0.00 0.00 0.00 99 1005.9
20260831084523 70 277 0.0 1.7 0.00 0.00 0.00 99 1006.1
20260831084022 70 261 0.0 1.7 0.00 0.00 0.00 99 1006.0
20260831083522 70 290 0.0 1.7 0.00 0.00 0.00 99 1005.9
20260831083035 70 273 0.0 2.6 0.00 0.00 0.00 99 1005.8
20260831082524 70 271 0.0 2.6 0.00 0.00 0.00 99 1005.8
20260831082024 70 273 0.0 1.7 0.00 0.00 0.00 99 1005.7
20260831081521 70 298 0.0 1.7 0.00 0.00 0.00 99 1005.6
20260831081024 70 294 0.9 3.5 0.00 0.00 0.00 99 1005.6
20260831080520 70 253 0.9 4.3 0.00 0.00 0.00 99 1005.5
20260831080019 70 272 0.0 4.3 0.00 0.00 0.00 98 1005.4
20260831075519 70 243 0.9 3.5 0.00 0.00 0.00 98 1005.6
20260831075018 70 271 0.9 2.6 0.00 0.00 0.00 98 1005.6
20260831074518 71 240 0.0 3.5 0.00 0.00 0.00 98 1005.7
20260831074018 71 278 0.9 2.6 0.00 0.00 0.00 98 1005.8
20260831073517 71 290 0.9 4.3 0.00 0.00 0.00 98 1005.7
20260831073017 71 257 1.7 6.1 0.00 0.00 0.00 98 1005.7
20260831072517 71 253 2.6 6.1 0.00 0.00 0.00 98 1005.6
20260831072015 71 259 1.7 4.3 0.00 0.00 0.00 98 1005.6
20260831071515 71 247 0.9 3.5 0.00 0.00 0.00 98 1005.7
20260831071014 71 238 1.7 4.3 0.00 0.00 0.00 98 1005.7
20260831070516 71 236 1.7 4.3 0.00 0.00 0.00 97 1005.6
20260831070023 71 234 0.0 4.3 0.00 0.00 0.00 97 1005.6
20260831065513 71 311 1.7 4.3 0.00 0.00 0.00 97 1005.7
20260831065012 71 255 0.9 4.3 0.00 0.00 0.00 97 1005.7
20260831064511 71 236 1.7 4.3 0.00 0.00 0.00 97 1005.9
20260831064010 71 231 0.0 4.3 0.00 0.00 0.00 97 1005.9
20260831063510 71 200 0.9 6.1 0.00 0.00 0.00 96 1005.9
20260831063010 71 292 1.7 6.1 0.00 0.00 0.00 96 1005.7
20260831062512 71 259 0.9 10.4 0.00 0.00 0.00 96 1005.8
20260831062011 72 280 2.6 10.4 0.00 0.00 0.00 96 1005.9
20260831061508 72 189 0.9 7.0 0.00 0.00 0.00 96 1005.9
20260831061008 72 209 1.7 7.8 0.00 0.00 0.00 95 1006.0
20260831060506 72 246 2.6 7.8 0.00 0.00 0.00 95 1006.1
20260831060006 72 253 1.7 7.0 0.00 0.00 0.00 95 1006.1
20260831055506 72 262 2.6 6.1 0.00 0.00 0.00 95 1006.1
20260831055005 72 166 0.9 6.1 0.00 0.00 0.00 95 1006.1
20260831054505 72 166 1.7 6.1 0.00 0.00 0.00 94 1006.1
20260831054004 72 245 2.6 7.0 0.00 0.00 0.00 94 1006.1
20260831053503 72 174 2.6 7.0 0.00 0.00 0.00 94 1006.1
20260831053003 72 252 2.6 6.1 0.00 0.00 0.00 94 1006.2
20260831052502 72 253 1.7 6.1 0.00 0.00 0.00 93 1006.2
20260831052002 72 238 0.9 6.1 0.00 0.00 0.00 93 1006.3
20260831051601 72 218 1.7 6.1 0.00 0.00 0.00 93 1006.5
20260831051159 73 295 1.7 5.2 0.00 0.00 0.00 93 1006.5
20260831050558 73 238 0.9 6.1 0.00 0.00 0.00 92 1006.5
20260831050508 73 255 0.9 6.1 0.00 0.00 0.00 92 1006.5
20260831050122 73 270 0.9 6.1 0.00 0.00 0.00 92 1006.6
20260831045557 73 240 0.9 7.8 0.00 0.00 0.00 92 1006.7
20260831045058 73 243 1.7 7.8 0.00 0.00 0.00 92 1006.8
20260831044604 73 210 2.6 5.2 0.00 0.00 0.00 92 1006.9
20260831044056 73 224 0.9 6.1 0.00 0.00 0.00 91 1007.1
20260831043556 73 176 1.7 6.1 0.00 0.00 0.00 91 1007.2
20260831043056 73 190 1.7 6.1 0.00 0.00 0.00 91 1007.2
20260831042555 74 298 0.9 5.2 0.00 0.00 0.00 91 1007.3
20260831032049 75 182 2.6 8.7 0.00 0.00 0.00 88 1007.0
20260831031549 75 165 2.6 7.8 0.00 0.00 0.00 88 1007.0
20260831025043 76 132 1.7 7.0 0.00 0.00 0.00 87 1006.8
20260831024538 76 214 2.6 7.8 0.00 0.00 0.00 86 1006.7